This demonstration page uses our WeatherBlox Daily Observations layout. Learn more.

39.92423, -83.80882

Hourly Observations for October 21, 2019

Temp ( °F °C ) Dew Point ( °F °C ) Humidity (%) Winds ( mph kmh ) Pressure ( in mb ) Visibility ( mi km ) Precip ( " mm )
12:56 am 00:56 Clear 55 12.8 54 12.2 96 96 Calm 29.94 1014 10 16.09344 0 0
1:23 am 01:23 Clear with Mist and Fog 52 11 52 11 100 100 E 5 7 29.97 1015 1.75 2.816352 0 0
1:32 am 01:32 Clear with Mist and Fog 52 11 52 11 100 100 E 5 7 29.97 1015 0.75 1.207008 0 0
1:37 am 01:37 Clear with Fog 50 10 50 10 100 100 E 5 7 29.97 1015 0.25 0.402336 0 0
1:45 am 01:45 Mostly Cloudy with Fog 50 10 50 10 100 100 E 5 7 29.97 1015 0.25 0.402336 0 0
1:56 am 01:56 Mostly Cloudy with Fog 49 9.4 49 9.4 100 100 E 6 9 29.94 1014 0.25 0.402336 0 0
2:45 am 02:45 Cloudy with Fog 48 9 48 9 100 100 E 7 11 29.97 1015 0.25 0.402336 0 0
2:56 am 02:56 Cloudy with Fog 50 10 50 10 100 100 SE 5 7 29.91 1013 0.25 0.402336 0 0
3:13 am 03:13 Mostly Cloudy with Mist and Fog 52 11 52 11 100 100 SE 5 7 29.94 1014 0.75 1.207008 0 0
3:15 am 03:15 Mostly Cloudy with Fog 52 11 52 11 100 100 SE 5 7 29.94 1014 0.5 0.804672 0 0
3:27 am 03:27 Mostly Cloudy with Fog 48 9 48 9 100 100 ESE 3 6 29.97 1015 0.25 0.402336 0 0
3:56 am 03:56 Cloudy with Fog 48 8.9 48 8.9 100 100 SE 6 9 29.91 1013 0.25 0.402336 0 0
4:56 am 04:56 Cloudy with Fog 52 11.1 52 11.1 100 100 ESE 5 7 29.91 1013 0.25 0.402336 0 0
5:43 am 05:43 Cloudy with Fog 54 12 54 12 100 100 SE 7 11 29.91 1013 0.5 0.804672 0 0
5:56 am 05:56 Cloudy with Fog 54 12.2 54 12.2 100 100 SE 8 13 29.91 1013 0.5 0.804672 0 0
6:56 am 06:56 Cloudy with Fog 55 12.8 55 12.8 100 100 SE 13 20 29.88 1012 0.5 0.804672 0 0
7:47 am 07:47 Cloudy with Fog 54 12 54 12 100 100 SE 12 19 29.91 1013 0.25 0.402336 0 0
7:56 am 07:56 Cloudy with Fog 55 12.8 55 12.8 100 100 SE 12 19 29.88 1012 0.25 0.402336 0 0
8:23 am 08:23 Cloudy with Light Rain 55 13 55 13 100 100 SE 12 19 29.91 1013 0.5 0.804672 0.001 0.001
8:34 am 08:34 Cloudy with Light Rain 55 13 55 13 100 100 SE 13 20 29.91 1013 1 1.609344 0.001 0.001
8:38 am 08:38 Cloudy with Light Rain 55 13 55 13 100 100 SE 12 19 29.91 1013 2 3.218688 0.001 0.001
8:47 am 08:47 Cloudy 55 13 55 13 100 100 SE 13 20 29.91 1013 7 11.265408 0.001 0.001
8:56 am 08:56 Cloudy 56 13.3 56 13.3 100 100 SE 14 22 29.88 1012 10 16.09344 0.001 0.001
9:23 am 09:23 Cloudy 57 14 57 14 100 100 SE 13 20 29.91 1013 10 16.09344 0 0
9:56 am 09:56 Mostly Cloudy with Light Rain 59 15 59 15 100 100 SE 14 22 29.85 1011 10 16.09344 0.001 0.001
10:06 am 10:06 Mostly Cloudy 59 15 59 15 100 100 SE 14 22 29.85 1011 10 16.09344 0.001 0.001
10:34 am 10:34 Mostly Cloudy 61 16 59 15 94 94 SE 18 30 29.83 1010 10 16.09344 0.001 0.001
10:56 am 10:56 Mostly Cloudy 59 15 58 14.4 96 96 SE 20 31 29.83 1010 10 16.09344 0.001 0.001
11:28 am 11:28 Partly Cloudy 61 16 57 14 88 88 SE 18 30 29.83 1010 10 16.09344 0 0
11:56 am 11:56 Mostly Sunny 66 18.9 56 13.3 70 70 SE 24 39 29.8 1009 10 16.09344 0 0
12:56 pm 12:56 Cloudy 66 18.9 55 12.8 68 68 SSE 17 28 29.77 1008 10 16.09344 0 0
1:56 pm 13:56 Cloudy with Light Rain 63 17.2 59 15 87 87 S 8 13 29.8 1009 8 12.874752 0.001 0.001
2:56 pm 14:56 Mostly Cloudy 67 19.4 62 16.7 84 84 SSE 13 20 29.74 1007 10 16.09344 0.001 0.001
3:56 pm 15:56 Cloudy 70 21.1 61 16.1 73 73 S 13 20 29.74 1007 10 16.09344 0 0
4:56 pm 16:56 Mostly Cloudy 72 22.2 61 16.1 68 68 S 10 17 29.71 1006 10 16.09344 0 0
5:56 pm 17:56 Cloudy with Light Rain 70 21.1 61 16.1 73 73 SSW 12 19 29.71 1006 10 16.09344 0.001 0.001
6:15 pm 18:15 Cloudy with Light Rain 66 19 61 16 83 83 SW 13 20 29.71 1006 10 16.09344 0.001 0.001
6:56 pm 18:56 Cloudy with Light Rain 64 17.8 60 15.6 87 87 S 9 15 29.74 1007 10 16.09344 0.001 0.001
7:56 pm 19:56 Cloudy with Light Rain 62 16.7 60 15.6 93 93 S 12 19 29.74 1007 10 16.09344 0 0
8:56 pm 20:56 Cloudy with Light Rain 61 16.1 60 15.6 97 97 S 12 19 29.77 1008 10 16.09344 0 0
9:56 pm 21:56 Mostly Cloudy 60 15.6 59 15 96 96 S 13 20 29.74 1007 10 16.09344 0 0
10:56 pm 22:56 Partly Cloudy 60 15.6 59 15 96 96 S 12 19 29.74 1007 10 16.09344 0 0
11:41 pm 23:41 Mostly Cloudy 61 16 59 15 94 94 SSW 13 20 29.74 1007 10 16.09344 0 0
11:56 pm 23:56 Cloudy 61 16.1 59 15 93 93 SSW 13 20 29.74 1007 10 16.09344 0 0

Powered by AerisWeather